Weather in Kazinka

Russia / Ryazan Oblast     53°54′12″N   39°24′20″E
temp.,
°C
wind,
m/s
gust,
m/s
humid.,
%
clouds,
%
prec.,
mm/h
press.,
hPa
HPBL,
m
5 december, sun
sun500:00−3wsw379014 0.0 1014305
03:00−3sw369264 0.0 1015245
06:00−2sw3785100 0.0 1014276
09:00−2sw3782100 0.0 1015314
12:000sw4673100 0.0 1016444
15:00−1sw357541 0.0 1017341
18:00−2ssw34805 0.0 101796
21:00−2ssw24785 0.0 1018112
6 december, mon
mon600:00−3ssw347634 0.0 1020100
03:00−3ssw2471100 0.0 102089
06:00−3s2368100 0.0 102173
09:00−3sse3568100 0.0 1022124
12:00−1sse3761100 0.0 1022325
15:00−1se3661100 0.0 1022288
18:00−2se486384 0.0 1022293
21:00−2se4106691 0.0 1022308
7 december, tue
tue700:00−2se51067100 0.0 1022362
03:00−2se61277100 0.0 1020417
06:00−2se71489100 0.2 1019510
09:00−1sse81796100 2.7 1017563
12:000sse71695100 1.9 1015631
15:00+1s71497100 3.9 1014495
18:00+2s61498100 1.1 1013430
21:00+3s71598100 1.6 1012430
8 december, wed
wed800:00+3s81795100 2.5 1012413
03:00+2s61594100 2.8 1012427
06:00+2s61494100 0.0 1012364
09:00+1s51195100 0.0 1014270
12:00+2sse41096100 0.0 1014280
15:00+2se3596100 0.0 1014144
18:00+1se3596100 0.0 1015109
21:00+1ese3696100 0.0 1015147
9 december, thu
thu900:000ese3796100 0.0 1015185
03:00+1ese3797100 0.0 1014223
06:00+1ese3698100 0.0 1014185
09:00+1se3798100 0.0 1015214
12:00+1se2597100 0.0 1014208
15:00+1se359794 0.0 1014145
18:000se2597100 0.0 1015126
21:00+1se2396100 0.1 101591